IBE0630 LEMD-LEBL

Flight info

Callsign IBE0630
Flight time N/A
Altitude 30000
Route PINAR N870 PONEN T600 CASPE
Aircraft A320/M-SDE3FGHIRWY/LB1

Departure

Time 2026-05-06 15:03
Airport Adolfo Suárez Madrid–Barajas Airport (LEMD)

Arrival

Time N/A
Airport Josep Tarradellas Barcelona-El Prat Airport (LEBL)
Time Latitude Longitude Altitude Speed Heading
2026-05-06 14:37 40.48951 -3.58984 2015 ft 0 kts 270°
2026-05-06 14:41 40.48951 -3.58977 2015 ft 2 kts 270°
2026-05-06 14:41 40.48951 -3.58955 2015 ft 3 kts 270°
2026-05-06 14:41 40.48954 -3.58929 2015 ft 3 kts 250°
2026-05-06 14:42 40.48964 -3.58906 2015 ft 3 kts 231°
2026-05-06 14:42 40.48978 -3.58888 2015 ft 3 kts 215°
2026-05-06 14:42 40.48996 -3.58875 2015 ft 3 kts 201°
2026-05-06 14:42 40.49016 -3.58868 2015 ft 3 kts 189°
2026-05-06 14:43 40.49034 -3.58866 2015 ft 0 kts 180°
2026-05-06 14:45 40.49033 -3.58866 2015 ft 0 kts 180°
2026-05-06 14:45 40.49032 -3.58866 2015 ft 0 kts 180°
2026-05-06 14:45 40.49009 -3.58865 2015 ft 12 kts 174°
2026-05-06 14:46 40.48899 -3.58861 2015 ft 13 kts 179°
2026-05-06 14:46 40.48820 -3.58860 2015 ft 13 kts 179°
2026-05-06 14:46 40.48772 -3.58849 2015 ft 3 kts 126°
2026-05-06 14:46 40.48761 -3.58798 2015 ft 11 kts 97°
2026-05-06 14:47 40.48760 -3.58703 2015 ft 15 kts 90°
2026-05-06 14:47 40.48760 -3.58554 2015 ft 15 kts 90°
2026-05-06 14:47 40.48760 -3.58440 2015 ft 12 kts 90°
2026-05-06 14:47 40.48759 -3.58316 2015 ft 12 kts 90°
2026-05-06 14:48 40.48759 -3.58235 2015 ft 6 kts 90°
2026-05-06 14:48 40.48759 -3.58163 2015 ft 7 kts 90°
2026-05-06 14:48 40.48759 -3.58107 2015 ft 6 kts 90°
2026-05-06 14:48 40.48765 -3.58077 2015 ft 2 kts 41°
2026-05-06 14:49 40.48806 -3.58061 2015 ft 9 kts
2026-05-06 14:49 40.48843 -3.58048 2015 ft 2 kts 65°
2026-05-06 14:49 40.48852 -3.58010 2015 ft 5 kts 83°
2026-05-06 14:49 40.48855 -3.57936 2015 ft 11 kts 89°
2026-05-06 14:50 40.48856 -3.57804 2015 ft 18 kts 89°
2026-05-06 14:50 40.48856 -3.57661 2015 ft 13 kts 92°
2026-05-06 14:50 40.48855 -3.57511 2015 ft 15 kts 90°
2026-05-06 14:50 40.48855 -3.57390 2015 ft 13 kts 90°
2026-05-06 14:51 40.48855 -3.57288 2015 ft 9 kts 90°
2026-05-06 14:51 40.48855 -3.57117 2015 ft 20 kts 90°
2026-05-06 14:51 40.48854 -3.56954 2015 ft 15 kts 90°
2026-05-06 14:51 40.48854 -3.56836 2015 ft 10 kts 89°
2026-05-06 14:52 40.48856 -3.56741 2015 ft 15 kts 89°
2026-05-06 14:52 40.48857 -3.56623 2015 ft 11 kts 90°
2026-05-06 14:52 40.48856 -3.56496 2015 ft 13 kts 91°
2026-05-06 14:52 40.48855 -3.56398 2015 ft 9 kts 89°
2026-05-06 14:53 40.48856 -3.56297 2015 ft 8 kts 88°
2026-05-06 14:53 40.48905 -3.56255 2015 ft 11 kts
2026-05-06 14:53 40.48995 -3.56258 2015 ft 15 kts 359°
2026-05-06 14:53 40.49116 -3.56255 2015 ft 20 kts
2026-05-06 14:54 40.49265 -3.56256 2015 ft 23 kts 359°
2026-05-06 14:54 40.49414 -3.56259 2015 ft 19 kts 359°
2026-05-06 14:54 40.49525 -3.56261 2015 ft 13 kts 359°
2026-05-06 14:54 40.49598 -3.56261 2015 ft 9 kts
2026-05-06 14:55 40.49684 -3.56260 2015 ft 12 kts
2026-05-06 14:55 40.49748 -3.56260 2015 ft 7 kts
2026-05-06 14:55 40.49793 -3.56259 2015 ft 7 kts
2026-05-06 14:55 40.49845 -3.56259 2015 ft 6 kts
2026-05-06 14:56 40.49877 -3.56259 2015 ft 5 kts
2026-05-06 14:56 40.49922 -3.56258 2015 ft 9 kts
2026-05-06 14:56 40.49943 -3.56234 2015 ft 2 kts 91°
2026-05-06 14:56 40.49943 -3.56218 2015 ft 2 kts 91°
2026-05-06 14:57 40.49943 -3.56201 2015 ft 2 kts 91°
2026-05-06 14:57 40.49943 -3.56185 2015 ft 2 kts 91°
2026-05-06 14:57 40.49942 -3.56169 2015 ft 2 kts 91°
2026-05-06 14:57 40.49942 -3.56152 2015 ft 2 kts 91°
2026-05-06 14:58 40.49942 -3.56136 2015 ft 2 kts 91°
2026-05-06 14:58 40.49942 -3.56120 2015 ft 2 kts 91°
2026-05-06 14:58 40.49942 -3.56103 2015 ft 2 kts 91°
2026-05-06 14:58 40.49941 -3.56087 2015 ft 2 kts 91°
2026-05-06 14:59 40.49942 -3.56071 2015 ft 2 kts 82°
2026-05-06 14:59 40.49945 -3.56055 2015 ft 2 kts 79°
2026-05-06 14:59 40.49945 -3.56051 2015 ft 0 kts 79°
2026-05-06 15:00 40.49945 -3.56050 2015 ft 0 kts 79°
2026-05-06 15:01 40.49947 -3.56040 2015 ft 4 kts 77°
2026-05-06 15:01 40.49970 -3.55980 2015 ft 9 kts 54°
2026-05-06 15:01 40.50001 -3.55931 2015 ft 4 kts 46°
2026-05-06 15:01 40.50020 -3.55916 2015 ft 3 kts 18°
2026-05-06 15:02 40.50033 -3.55912 2015 ft 2 kts 10°
2026-05-06 15:02 40.50042 -3.55911 2015 ft 3 kts
2026-05-06 15:02 40.50176 -3.55912 2015 ft 55 kts 358°
2026-05-06 15:02 40.51134 -3.55920 2015 ft 149 kts
2026-05-06 15:03 40.51891 -3.55916 2138 ft 169 kts 360°
2026-05-06 15:03 40.53019 -3.55882 3054 ft 154 kts
2026-05-06 15:03 40.54095 -3.55844 3828 ft 159 kts
2026-05-06 15:03 40.55276 -3.55781 4289 ft 181 kts
2026-05-06 15:04 40.56594 -3.55399 4625 ft 210 kts 18°
2026-05-06 15:04 40.58054 -3.54574 5002 ft 243 kts 23°
2026-05-06 15:04 40.59567 -3.53377 5625 ft 267 kts 40°
2026-05-06 15:04 40.60808 -3.51524 6771 ft 272 kts 55°
2026-05-06 15:05 40.61779 -3.49376 7915 ft 277 kts 60°
2026-05-06 15:05 40.62724 -3.47129 8995 ft 282 kts 61°
2026-05-06 15:05 40.63672 -3.44851 10035 ft 287 kts 61°
2026-05-06 15:05 40.64594 -3.42631 10793 ft 301 kts 61°
2026-05-06 15:06 40.65635 -3.40120 11199 ft 327 kts 61°
2026-05-06 15:06 40.66767 -3.37378 11635 ft 348 kts 61°
2026-05-06 15:06 40.67944 -3.34516 12485 ft 354 kts 61°
2026-05-06 15:06 40.69107 -3.31683 13326 ft 359 kts 61°
2026-05-06 15:07 40.70309 -3.28752 14126 ft 364 kts 61°
2026-05-06 15:07 40.71523 -3.25794 14875 ft 369 kts 60°
2026-05-06 15:07 40.72763 -3.22770 15592 ft 375 kts 60°
2026-05-06 15:07 40.74004 -3.19739 16284 ft 380 kts 60°
2026-05-06 15:08 40.75264 -3.16657 16960 ft 384 kts 60°
2026-05-06 15:08 40.76547 -3.13515 17624 ft 389 kts 60°
2026-05-06 15:08 40.77828 -3.10377 18279 ft 393 kts 60°
2026-05-06 15:08 40.79138 -3.07165 18936 ft 396 kts 60°
2026-05-06 15:09 40.80444 -3.03961 19562 ft 400 kts 60°
2026-05-06 15:09 40.81772 -3.00692 20156 ft 404 kts 60°
2026-05-06 15:09 40.83111 -2.97393 20738 ft 408 kts 60°
2026-05-06 15:09 40.84437 -2.94119 21284 ft 412 kts 60°
2026-05-06 15:10 40.85805 -2.90737 21832 ft 415 kts 60°
2026-05-06 15:10 40.87152 -2.87402 22353 ft 419 kts 60°
2026-05-06 15:10 40.88544 -2.83950 22864 ft 422 kts 60°
2026-05-06 15:10 40.89929 -2.80509 23347 ft 425 kts 60°
2026-05-06 15:11 40.91317 -2.77058 23825 ft 428 kts 60°
2026-05-06 15:11 40.92719 -2.73564 24287 ft 431 kts 60°
2026-05-06 15:11 40.94128 -2.70043 24693 ft 436 kts 60°
2026-05-06 15:11 40.95553 -2.66477 25076 ft 440 kts 60°
2026-05-06 15:12 40.96993 -2.62871 25454 ft 444 kts 60°
2026-05-06 15:12 40.98416 -2.59259 25831 ft 447 kts 62°
2026-05-06 15:12 40.99690 -2.55478 26204 ft 452 kts 67°
2026-05-06 15:12 41.00717 -2.51514 26555 ft 456 kts 72°
2026-05-06 15:13 41.01466 -2.47429 26883 ft 460 kts 78°
2026-05-06 15:13 41.01935 -2.43219 27199 ft 464 kts 83°
2026-05-06 15:13 41.02278 -2.38940 27511 ft 468 kts 84°
2026-05-06 15:13 41.02793 -2.34664 27809 ft 471 kts 77°
2026-05-06 15:14 41.03553 -2.30429 28114 ft 474 kts 75°
2026-05-06 15:14 41.04357 -2.26210 28406 ft 478 kts 75°
2026-05-06 15:14 41.05183 -2.21922 28705 ft 481 kts 75°
2026-05-06 15:14 41.06020 -2.17572 28999 ft 484 kts 75°
2026-05-06 15:15 41.06857 -2.13211 29292 ft 487 kts 75°
2026-05-06 15:15 41.07690 -2.08858 29592 ft 490 kts 75°
2026-05-06 15:15 41.08520 -2.04481 29854 ft 490 kts 75°
2026-05-06 15:16 41.10163 -1.95700 29956 ft 490 kts 75°
2026-05-06 15:16 41.11798 -1.86888 29963 ft 492 kts 75°
2026-05-06 15:17 41.12898 -1.80994 29963 ft 493 kts 75°